www.pogodaiklimat.ru

Погода и климат >> Архив погоды >> Россия >> Магаданская область >> Талон


АРХИВ ПОГОДЫ в Талоне

Время (UTC), дата Ветер
(напр.,м/с)
 
Видим.   Явления Облачность Т
(С)
Тd
(С)
f
(%)
Тe
(С)
Тes
(С)
Комфортность P
(гПа)
Po
(гПа)
Тmin
(С)
Tmax
(С)
R
(мм)
R24
(мм)
S
(см)
09 13.04 СЗ 1 50 км 9/3 1000 м
[Sc Ci fib]
-0.4 -6.8 62 -2 -2 1017.4 1014.7 +2.6
12 13.04 штиль 0 50 км 9/0
[Ac trans Ci fib]
-5.9 -7.9 86 -7 -7 1018.7 1016.0
15 13.04 ЮЗ 1 50 км 6/0
[Ac trans Ci fib]
-10.3 -11.1 94 -13 -13 1020.1 1017.3
18 13.04 ЮЗ 1 50 км 4/0
[Ci fib]
-12.6 -13.0 97 -15 -15 1018.8 1016.0
21 13.04 ЮЗ 1 50 км 9/0
[Ac trans Ci fib]
-7.2 -9.2 86 -10 -8 1017.6 1014.9 -12.6 41
00 14.04 З 1 50 км 9/0
[Ac trans Ci sp]
-1.0 -6.9 64 -3 +4 1017.0 1014.4
03 14.04 Ю 1 50 км 8/0
[Ci fib]
+3.8 -7.6 43 +3 +6 1015.9 1013.3
06 14.04 Ю 3 50 км 4/0
[Ci fib]
+1.9 -5.9 56 -2 0 1015.9 1013.3
09 14.04 Ю 3 50 км 6/0
[Ci fib]
-2.4 -6.2 75 -7 -7 1016.0 1013.3 +4.3
12 14.04 ЮВ 1 50 км 9/6 600 м
[Cb cap Ac trans Ci fib]
-3.6 -6.7 79 -6 -6 1017.4 1014.7
15 14.04 ЮВ 1 50 км 10/6 600 м
[Cb cap Ac und]
-3.3 -6.2 80 -5 -5 1017.4 1014.7
18 14.04 ЮВ 1 20 км слаб. ливневой снег 10/6 600 м
[Cb cap Ac und]
-3.6 -5.6 86 -6 -6 1016.0 1013.3
21 14.04 ЮВ 2 20 км слаб. ливневой снег 10/6 600 м
[Cb cap Ac und]
-2.7 -5.1 84 -7 -6 1014.5 1011.9 -4.7 0.4 41
00 15.04 ЮВ 2 2000 м ливневой снег 10/10 600 м
[Cb cap]
-2.0 -2.7 95 -6 -6 1014.4 1011.8
03 15.04 ЮВ 2 20 км слаб. ливневой снег 10/8 600 м
[Cb cap Ac und]
-1.2 -3.2 86 -5 -5 1014.7 1012.0
06 15.04 Ю 3 20 км слаб. ливневой снег 10/8 600 м
[Cb cap Ac und]
-0.6 -3.1 83 -5 -5 1014.7 1012.0
09 15.04 Ю 1 50 км {ливн. осадки} 10/8 600 м
[Cb cap Ac und]
-1.1 -3.0 87 -3 -3 1016.0 1013.3 -0.6 4
12 15.04 Ю 2 50 км {ливн. осадки} 10/8 600 м
[Cb cap Ac und]
-2.3 -4.5 85 -6 -6 1015.7 1013.1
15 15.04 штиль 0 20 км слаб. ливневой снег 10/8 600 м
[Cb cap Ac und]
-3.6 -4.9 91 -5 -5 1017.4 1014.7
18 15.04 штиль 0 50 км {ливн. осадки} 9/5 600 м
[Cb cap Ac trans Ci fib]
-6.2 -6.3 99 -7 -7 1017.4 1014.7
21 15.04 штиль 0 50 км слаб. ливневой снег 9/4 600 м
[Cb cap Ac trans Ci fib]
-3.9 -6.0 85 -5 -4 1017.5 1014.8 -7.5 0.2 46
00 16.04 Ю 2 50 км {ливн. осадки} 9/9 600 м
[Cb cap]
+0.8 -5.6 62 -2 -1 1017.8 1015.2
03 16.04 ЮВ 2 50 км 9/9 600 м
[Cb cap]
+1.3 -5.6 60 -2 -1 1018.7 1016.0
06 16.04 Ю 3 50 км 9/5 1000 м
[Sc Ci fib]
+0.2 -5.8 64 -4 -4 1018.7 1016.0
09 16.04 Ю 2 50 км 9/9 600 м
[Cb cap]
-1.6 -5.3 76 -5 -5 1018.7 1016.0 +1.7 0.0
12 16.04 В 2 50 км 10/8 600 м
[Cb cap Ac und]
-1.6 -4.1 83 -5 -5 1018.7 1016.0
15 16.04 штиль 0 50 км 10/8 600 м
[Cb cap Ac und]
-2.1 -4.6 83 -3 -3 1018.7 1016.0
18 16.04 ЮВ 2 20 км слаб. ливневой снег 10/8 600 м
[Cb cap Ac und]
-1.8 -3.7 87 -6 -6 1017.4 1014.7
21 16.04 ЮВ 1 10 км слаб. ливневой снег 10/10 600 м
[Cb cap]
-1.5 -2.3 94 -4 -4 1016.0 1013.3 -2.7 1 46
00 17.04 ЮВ 1 4000 м слаб. ливневой снег 10/10 600 м
[Cb cap]
-0.7 -1.6 94 -3 -3 1014.6 1012.0
03 17.04 Ю 3
{13}
4000 м слаб. ливневой снег 10/10 600 м
[Cb cap]
-0.4 -1.1 95 -5 -5 1016.0 1013.3
06 17.04 ЮВ 3
{10}
2000 м ливневой снег 10/10 600 м
[Cb cap]
-0.4 -0.4 100 -5 -5 1014.7 1012.0
09 17.04 ЮВ 2 4000 м слаб. ливневой снег 10/10 600 м
[Cb cap]
-0.8 -0.8 100 -5 -5 1013.4 1010.7 -0.3 18
12 17.04 ЮВ 3 4000 м слаб. ливневой снег 10/10 600 м
[Cb cap]
-1.5 -1.5 100 -7 -7 1011.7 1009.1
15 17.04 ЮВ 2 2000 м ливневой снег 10/10 600 м
[Cb cap]
-1.9 -1.9 100 -6 -6 1012.0 1009.3
18 17.04 Ю 2 2000 м ливневой снег 10/10 600 м
[Cb cap]
-1.3 -1.3 100 -5 -5 1012.0 1009.3
21 17.04 Ю 2 50 км {ливн. осадки} 10/10 600 м
[Cb cap]
-0.3 -0.3 100 -4 -4 1012.0 1009.3 -1.9 19 95
00 18.04 Ю 2 50 км {ливн. осадки} 9/6 600 м
[Cb cap Ac trans Ci fib]
+0.5 -2.9 78 -3 -2 1014.7 1012.0
03 18.04 Ю 3 50 км 9/8 600 м
[Cb cap Ac trans Ci fib]
+0.7 -3.6 73 -4 -3 1016.0 1013.3
06 18.04 Ю 2 50 км 9/9 600 м
[Cb cap]
+0.1 -3.8 75 -3 -3 1018.7 1016.0
09 18.04 ЮВ 1 50 км 10/8 600 м
[Cb cap Ac und]
-1.5 -3.8 84 -4 -4 1020.0 1017.3 +1.9
12 18.04 ЮВ 1 50 км 10/8 600 м
[Cb cap Ac und]
-2.1 -4.1 86 -4 -4 1021.4 1018.7
15 18.04 ЮВ 1 50 км 10/8 600 м
[Cb cap Ac und]
-2.6 -4.8 85 -5 -5 1021.4 1018.7
18 18.04 ЮВ 1 50 км 10/6 600 м
[Cb cap Ac und]
-2.6 -4.3 88 -5 -5 1020.1 1017.5
21 18.04 СВ 1 50 км 10/8 600 м
[Cb cap Ac und]
-2.5 -4.0 89 -5 -5 1020.7 1018.1 -2.8 79
00 19.04 В 2 20 км 10/10 300 м
[St]
-1.6 -2.6 93 -6 -6 1020.3 1017.7
03 19.04 ЮВ 2 10 км слаб. ливневой снег 10/10 300 м
[Cb cap]
+0.6 -1.2 88 -3 -3 1021.4 1018.7
06 19.04 ЮВ 2 20 км 10 баллов +0.5 -1.3 88 -3 -3 1021.4 1018.7
09 19.04 Ю 2 20 км в посл. час ливневой снег 10/10 300 м
[St]
-0.5 -1.1 96 -4 -4 1022.7 1020.0 +0.7 0.7
12 19.04 Ю 2 10 км слаб. ливневой снег 10/10 300 м
[Cb cap]
-0.5 -1.7 92 -4 -4 1022.2 1019.6
15 19.04 Ю 3 20 км 10 баллов -0.7 -2.1 90 -6 -6 1024.0 1021.3
18 19.04 Ю 2 20 км 10 баллов -1.0 -2.3 91 -5 -5 1024.0 1021.3
21 19.04 Ю 2 20 км 10/10 300 м
[St]
-0.5 -2.2 88 -4 -4 1023.5 1020.9 -1.1 0.5 74
00 20.04 Ю 2 10 км слаб. ливневой снег 10/10 300 м
[Cb cap]
+0.3 -1.0 91 -3 -3 1023.6 1021.0
03 20.04 Ю 2 10 км слаб. ливневой снег 10 баллов +1.4 -1.8 79 -2 -2 1025.4 1022.7

 

Местоположение метеостанции Талон (Магаданская область, Россия): широта 59.76 долгота 148.60 высота над уровнем моря 21 м.

В архиве по умолчанию представлена погода в Талоне за последнюю неделю. Архивные данные за месяц целиком и за предыдущие месяцы, начиная с января 2011 года, Вы можете получить, выбрав интересующий диапазон дат из раскрывающегося списка и нажав кнопку "Ввод!".


*Определитесь, кто Вы:
робот инопланетянин человек

Внимание! Время в таблицах - всемирное. Для получения местного времени необходимо прибавить поправку, которая равна 11 ч.

Смотрите также архив погоды в соседних городах и на ближайших метеорологических станциях:

Погода на Острове Спафарьева (Магаданская область, Россия) (72 км)
Погода в Армани (Магаданская область, Россия) (85 км)
Погода в Магадане (Магаданская область, Россия) (120 км)
Погода в Нагаева (Магаданская область, Россия) (122 км)
Погода в Палатке (Магаданская область, Россия) (134 км)
Погода в Оле (Магаданская область, Россия) (148 км)
Погода в Мадауне (Магаданская область, Россия) (149 км)
Погода в Усть-Омчуге (Магаданская область, Россия) (161 км)
Погода на Мысе Алевина (Магаданская область, Россия) (185 км)
Погода в Колымской (Магаданская область, Россия) (239 км)

Пояснения к столбцам:

Ветер - указаны скорость ветра в м/с - средняя за 10 мин, порывы в срок и между сроками (в фигурных скобках) и направление, откуда дует ветер: С - северный, СВ - северо-восточный, В - восточный, ЮВ - юго-восточный, Ю - южный, ЮЗ - юго-западный, З - западный, СЗ - северо-западный.
Видимость - горизонтальная дальность видимости в метрах или километрах. При видимости от 1 до 10 км при отсутствии осадков обычно наблюдается дымка, при ухудшении видимости до 1 км и менее - туман. В сухую погоду видимость может ухудшаться дымом, пылью или мглою.
Явления - указаны атмосферные явления, наблюдавшиеся в срок или в последний час перед сроком; фигурными скобками обозначены явления, наблюдавшиеся между сроками (за 1-3 часа до срока); квадратными скобками обозначены град или гололедные отложения с указанием их диаметра в мм.
Облачность - указаны через наклонную черту общая и нижняя облачность в баллах и высота нижней границы облаков в метрах; квадратными скобками обозначены формы облаков: Ci - перистые, Cs - перисто-слоистые, Cc - перисто-кучевые, Ac - высококучевые, As - высокослоистые, Sc - слоисто-кучевые, Ns - слоисто-дождевые, Cu - кучевые, Cb - кучево-дождевые. Подробнее классификацию облаков см. в Атласе облаков (PDF).
T - Температура воздуха - температура, измеренная на высоте 2 м над землей.
Td - Температура точки росы - температура, при понижении до которой содержащийся в воздухе водяной пар достигнет насыщения.
f - Относительная влажность воздуха - влажноcть воздуха, измеренная на высоте 2 м над землей.
Te - Эффективная температура - температура, которую ощущает одетый по сезону человек в тени. Характеристика душности погоды. При расчете учитывается влияние влажности воздуха и скорости ветра на теплоощущения человека.
Tes - Эффективная температура на солнце - температура, которую ощущает человек, с поправкой на солнечный нагрев. Характеристика знойности погоды. Зависит от высоты солнца над горизонтом, облачности и скорости ветра. Ночью, в пасмурную погоду, а также при ветре 12 м/с и более поправка равна нулю.
P - Атмосферное давление - приведенное к уровню моря атмосферное давление.
Po - Атмосферное давление - измеренное на уровне метеостанции атмосферное давление.
Tmin - Минимальная температура - минимум температуры воздуха на высоте 2 м над землей.
Tmax - Максимальная температура - максимум температуры воздуха на высоте 2 м над землей.
R - Количество осадков - Количество выпавших осадков за период времени, мм. При наведении курсора мыши на число - период времени, за который выпало указанное количество осадков.
R24 - Количество осадков - Количество выпавших осадков за 24 часа, мм.
S - Снежный покров - Высота снежного покрова, см. При наведении курсора мыши на число - состояние снежного покрова и степень покрытия местности в баллах.